• In Uzbekistan
  • List of Countries
  • For 7 days
  • Water Temperature
  • Weather Map
  • Weather Widgets
  • user-avatar
    Login

    Hourly Weather Kanggye

    Today, 1 June, Monday

    Time Temperature Precipitation Wind Pressure Humidity
    00:00 +14°C° 1.5 mm 2 mps 721 mmHg 97%
    01:00 +14°C° 1.5 mm 2 mps 721 mmHg 97%
    02:00 +13°C° 0 mm 2 mps 720 mmHg 97%
    03:00 +13°C° 0.1 mm 2 mps 720 mmHg 97%
    04:00 +13°C° 0.1 mm 2 mps 720 mmHg 97%
    05:00 +13°C° 0.1 mm 2 mps 720 mmHg 97%
    06:00 +13°C° 0.1 mm 2 mps 720 mmHg 96%
    07:00 +12°C° 0.1 mm 3 mps 720 mmHg 96%
    08:00 +12°C° 0 mm 3 mps 721 mmHg 96%
    09:00 +13°C° 0.1 mm 3 mps 721 mmHg 93%
    10:00 +13°C° 0.1 mm 3 mps 721 mmHg 90%
    11:00 +13°C° 0.1 mm 3 mps 721 mmHg 88%
    12:00 +16°C° 0.1 mm 3 mps 721 mmHg 79%
    13:00 +18°C° 0.1 mm 4 mps 721 mmHg 71%
    14:00 +20°C° 0 mm 4 mps 722 mmHg 64%
    15:00 +20°C° 0 mm 4 mps 722 mmHg 60%
    16:00 +20°C° 0 mm 4 mps 722 mmHg 56%
    17:00 +20°C° 0 mm 4 mps 722 mmHg 53%
    18:00 +18°C° 0 mm 3 mps 723 mmHg 60%
    19:00 +16°C° 0 mm 2 mps 723 mmHg 68%
    20:00 +14°C° 0 mm 1 mps 723 mmHg 79%
    21:00 +13°C° 0 mm 1 mps 723 mmHg 80%
    22:00 +13°C° 0 mm 1 mps 723 mmHg 81%
    23:00 +12°C° 0 mm 1 mps 724 mmHg 82%

    Tomorrow, 2 June, Tuesday

    Time Temperature Precipitation Wind Pressure Humidity
    00:00 +12°C° 0 mm 1 mps 723 mmHg 82%
    01:00 +12°C° 0 mm 1 mps 723 mmHg 82%
    02:00 +11°C° 0 mm 1 mps 722 mmHg 82%
    03:00 +12°C° 0 mm 1 mps 723 mmHg 81%
    04:00 +12°C° 0 mm 1 mps 723 mmHg 79%
    05:00 +12°C° 0 mm 2 mps 723 mmHg 77%
    06:00 +15°C° 0 mm 2 mps 723 mmHg 68%
    07:00 +17°C° 0 mm 2 mps 723 mmHg 58%
    08:00 +19°C° 0 mm 2 mps 722 mmHg 49%
    09:00 +19°C° 0 mm 2 mps 722 mmHg 49%
    10:00 +19°C° 0 mm 3 mps 723 mmHg 48%
    11:00 +20°C° 0 mm 3 mps 723 mmHg 48%
    12:00 +19°C° 0.2 mm 3 mps 722 mmHg 55%
    13:00 +19°C° 0.2 mm 2 mps 722 mmHg 62%
    14:00 +18°C° 0.2 mm 2 mps 721 mmHg 68%
    15:00 +18°C° 0 mm 2 mps 721 mmHg 66%
    16:00 +19°C° 0 mm 2 mps 721 mmHg 63%
    17:00 +19°C° 0 mm 2 mps 721 mmHg 60%
    18:00 +17°C° 0 mm 2 mps 721 mmHg 71%
    19:00 +14°C° 0 mm 1 mps 721 mmHg 81%
    20:00 +12°C° 0 mm 1 mps 720 mmHg 92%
    21:00 +11°C° 0 mm 1 mps 720 mmHg 92%
    22:00 +11°C° 0 mm 1 mps 721 mmHg 92%
    23:00 +10°C° 0 mm 1 mps 721 mmHg 92%

    Day after tomorrow, 3 June, Wednesday

    Time Temperature Precipitation Wind Pressure Humidity
    00:00 +10°C° 0 mm 1 mps 720 mmHg 91%
    01:00 +10°C° 0 mm 1 mps 720 mmHg 91%
    02:00 +10°C° 0 mm 1 mps 720 mmHg 90%
    03:00 +10°C° 0 mm 1 mps 720 mmHg 87%
    04:00 +11°C° 0 mm 1 mps 720 mmHg 85%
    05:00 +11°C° 0 mm 1 mps 720 mmHg 83%
    06:00 +14°C° 0 mm 1 mps 720 mmHg 73%
    07:00 +19°C° 0 mm 1 mps 719 mmHg 62%
    08:00 +22°C° 0 mm 1 mps 719 mmHg 52%
    09:00 +24°C° 0 mm 2 mps 719 mmHg 47%
    10:00 +26°C° 0 mm 3 mps 718 mmHg 43%
    11:00 +28°C° 0 mm 4 mps 718 mmHg 38%
    12:00 +28°C° 0 mm 5 mps 717 mmHg 40%
    13:00 +27°C° 0 mm 5 mps 717 mmHg 42%
    14:00 +27°C° 0 mm 6 mps 717 mmHg 44%
    15:00 +25°C° 0.5 mm 5 mps 716 mmHg 58%
    16:00 +22°C° 0.5 mm 5 mps 716 mmHg 71%
    17:00 +21°C° 0.5 mm 4 mps 716 mmHg 84%
    18:00 +19°C° 0.5 mm 3 mps 716 mmHg 88%
    19:00 +17°C° 0.5 mm 3 mps 716 mmHg 92%
    20:00 +15°C° 0.5 mm 2 mps 716 mmHg 97%
    21:00 +15°C° 0.4 mm 2 mps 717 mmHg 96%
    22:00 +14°C° 0.4 mm 2 mps 717 mmHg 96%
    23:00 +14°C° 0.4 mm 2 mps 717 mmHg 95%

    4 June, Thursday

    Time Temperature Precipitation Wind Pressure Humidity
    00:00 +13°C° 0.1 mm 2 mps 717 mmHg 96%
    01:00 +13°C° 0.1 mm 2 mps 717 mmHg 96%
    02:00 +12°C° 0.1 mm 1 mps 717 mmHg 96%
    03:00 +12°C° 0 mm 1 mps 718 mmHg 95%
    04:00 +12°C° 0 mm 1 mps 718 mmHg 95%
    05:00 +12°C° 0 mm 1 mps 718 mmHg 94%
    06:00 +13°C° 0 mm 2 mps 719 mmHg 84%
    07:00 +15°C° 0 mm 2 mps 719 mmHg 73%
    08:00 +17°C° 0 mm 3 mps 719 mmHg 63%
    09:00 +19°C° 0 mm 3 mps 719 mmHg 58%
    10:00 +20°C° 0 mm 3 mps 719 mmHg 53%
    11:00 +21°C° 0 mm 3 mps 719 mmHg 48%
    12:00 +22°C° 0 mm 3 mps 719 mmHg 47%
    13:00 +22°C° 0 mm 3 mps 720 mmHg 47%
    14:00 +24°C° 0 mm 3 mps 720 mmHg 46%
    15:00 +22°C° 0 mm 3 mps 720 mmHg 49%
    16:00 +22°C° 0 mm 3 mps 720 mmHg 52%
    17:00 +21°C° 0 mm 2 mps 720 mmHg 55%
    18:00 +19°C° 0 mm 2 mps 720 mmHg 64%
    19:00 +18°C° 0 mm 1 mps 721 mmHg 72%
    20:00 +13°C° 0 mm 0 mps 721 mmHg 81%
    21:00 +13°C° 0 mm 0 mps 721 mmHg 82%
    22:00 +13°C° 0 mm 1 mps 722 mmHg 84%
    23:00 +13°C° 0 mm 1 mps 722 mmHg 85%

    5 June, Friday

    Time Temperature Precipitation Wind Pressure Humidity
    00:00 +12°C° 0 mm 1 mps 723 mmHg 86%
    01:00 +12°C° 0 mm 1 mps 723 mmHg 87%
    02:00 +12°C° 0 mm 1 mps 723 mmHg 87%
    03:00 +12°C° 0 mm 1 mps 723 mmHg 86%
    04:00 +12°C° 0 mm 1 mps 723 mmHg 85%
    05:00 +12°C° 0 mm 0 mps 723 mmHg 84%
    06:00 +16°C° 0 mm 1 mps 724 mmHg 74%
    07:00 +19°C° 0 mm 1 mps 724 mmHg 64%
    08:00 +21°C° 0 mm 2 mps 724 mmHg 54%
    09:00 +23°C° 0 mm 2 mps 724 mmHg 50%
    10:00 +24°C° 0 mm 3 mps 724 mmHg 46%
    11:00 +25°C° 0 mm 4 mps 724 mmHg 43%
    12:00 +25°C° 0 mm 4 mps 723 mmHg 42%
    13:00 +25°C° 0 mm 4 mps 723 mmHg 42%
    14:00 +26°C° 0 mm 4 mps 723 mmHg 41%
    15:00 +25°C° 0 mm 3 mps 723 mmHg 45%
    16:00 +24°C° 0 mm 3 mps 723 mmHg 48%
    17:00 +24°C° 0 mm 2 mps 723 mmHg 51%
    18:00 +20°C° 0 mm 2 mps 724 mmHg 60%
    19:00 +19°C° 0 mm 1 mps 724 mmHg 69%
    20:00 +15°C° 0 mm 1 mps 724 mmHg 78%
    21:00 +15°C° 0 mm 1 mps 725 mmHg 79%
    22:00 +14°C° 0 mm 1 mps 725 mmHg 81%
    23:00 +14°C° 0 mm 1 mps 725 mmHg 83%

    6 June, Saturday

    Time Temperature Precipitation Wind Pressure Humidity
    00:00 +12°C° 0 mm 0 mps 725 mmHg 85%
    01:00 +12°C° 0 mm 0 mps 725 mmHg 87%
    02:00 +12°C° 0 mm 0 mps 725 mmHg 89%
    03:00 +12°C° 0 mm 0 mps 725 mmHg 89%
    04:00 +12°C° 0 mm 0 mps 725 mmHg 89%
    05:00 +12°C° 0 mm 0 mps 725 mmHg 88%
    06:00 +16°C° 0 mm 1 mps 725 mmHg 78%
    07:00 +20°C° 0 mm 1 mps 726 mmHg 68%
    08:00 +23°C° 0 mm 1 mps 726 mmHg 58%
    09:00 +24°C° 0 mm 1 mps 726 mmHg 53%
    10:00 +25°C° 0 mm 1 mps 726 mmHg 49%
    11:00 +27°C° 0 mm 2 mps 726 mmHg 44%
    12:00 +27°C° 0 mm 2 mps 726 mmHg 43%
    13:00 +28°C° 0 mm 2 mps 725 mmHg 41%
    14:00 +28°C° 0 mm 2 mps 725 mmHg 40%
    15:00 +28°C° 0 mm 2 mps 725 mmHg 44%
    16:00 +27°C° 0 mm 1 mps 725 mmHg 47%
    17:00 +27°C° 0 mm 1 mps 725 mmHg 51%
    18:00 +24°C° 0 mm 1 mps 725 mmHg 60%
    19:00 +21°C° 0 mm 1 mps 726 mmHg 69%
    20:00 +18°C° 0 mm 1 mps 726 mmHg 78%
    21:00 +18°C° 0 mm 1 mps 726 mmHg 80%
    22:00 +16°C° 0 mm 1 mps 726 mmHg 83%
    23:00 +15°C° 0 mm 1 mps 726 mmHg 85%
    Show more